WXM80 ListenWXM80 Stop

You find our weather info also at:

UK Metoffice

WeatherCloud

Weather Underground

Northeastern Weather Network

AWEKAS

Citizen Weather Observer Program (CWOP)

HAMweather, WeatherForYou, PWS Weather


Weather Underground History page Text

Daily Summary for January 27, 2016 Units:  English    Metric   Both
« Previous Day
Next Day »
Daily Weekly Monthly Yearly Custom
  High: Low: Average:
Temperature: 46.7 °F 34.9 °F 41.7 °F
Dew Point: 37.5 °F 23.3 °F 30.4 °F
Humidity: 79 % 45 % 65 %
Wind Speed: 9.4 mph 0.0 mph 3.4 mph
Wind Gust: 19.6 mph - -
Wind:- - West
Pressure: 30.11 in 29.89 in -
Precipitation: 0.00 in    
Historical Graphs
 
 
Tabular Data for January 27, 2016
Time Temperature Dew Point Pressure Wind Wind Speed Wind Gust Humidity Rainfall Rate (Hourly)
00:01 44.1 °F 37.0 °F 29.92 in WSW 4.0 mph 5.0 mph 76 % 0.00 in
00:07 44.0 °F 36.9 °F 29.92 in SW 3.4 mph 5.0 mph 76 % 0.00 in
00:12 44.0 °F 36.9 °F 29.91 in SW 3.3 mph 4.6 mph 76 % 0.00 in
00:17 43.9 °F 36.8 °F 29.91 in SSW 2.5 mph 6.0 mph 76 % 0.00 in
00:22 43.8 °F 36.7 °F 29.91 in SSW 1.9 mph 3.5 mph 76 % 0.00 in
00:27 43.8 °F 36.7 °F 29.90 in SSW 3.3 mph 5.0 mph 76 % 0.00 in
00:32 43.8 °F 36.7 °F 29.90 in SSW 4.1 mph 8.1 mph 76 % 0.00 in
00:37 43.8 °F 36.7 °F 29.90 in SSW 3.6 mph 6.0 mph 76 % 0.00 in
00:47 43.9 °F 36.5 °F 29.90 in South 3.6 mph 6.9 mph 75 % 0.00 in
00:52 44.0 °F 36.6 °F 29.89 in WSW 3.7 mph 5.8 mph 75 % 0.00 in
00:58 44.0 °F 36.6 °F 29.90 in WSW 2.9 mph 4.6 mph 75 % 0.00 in
01:03 44.0 °F 36.6 °F 29.89 in SSW 3.3 mph 5.8 mph 75 % 0.00 in
01:08 44.0 °F 36.6 °F 29.90 in SW 4.5 mph 8.1 mph 75 % 0.00 in
01:13 44.0 °F 36.6 °F 29.90 in SW 3.0 mph 4.0 mph 75 % 0.00 in
01:18 44.0 °F 36.6 °F 29.89 in SW 2.4 mph 8.0 mph 75 % 0.00 in
01:23 44.0 °F 36.6 °F 29.90 in WSW 2.6 mph 6.9 mph 75 % 0.00 in
01:28 44.1 °F 36.7 °F 29.89 in SW 3.4 mph 5.8 mph 75 % 0.00 in
01:33 44.1 °F 36.7 °F 29.89 in SW 3.3 mph 8.1 mph 75 % 0.00 in
01:38 44.2 °F 36.8 °F 29.89 in WSW 3.8 mph 6.9 mph 75 % 0.00 in
01:44 44.2 °F 36.8 °F 29.89 in SW 2.2 mph 6.9 mph 75 % 0.00 in
01:49 44.2 °F 36.8 °F 29.90 in SW 3.4 mph 5.8 mph 75 % 0.00 in
01:54 44.1 °F 36.7 °F 29.90 in SSW 2.9 mph 4.6 mph 75 % 0.00 in
01:59 44.1 °F 36.7 °F 29.89 in South 1.6 mph 3.5 mph 75 % 0.00 in
02:04 44.1 °F 36.7 °F 29.89 in SSW 2.8 mph 4.6 mph 75 % 0.00 in
02:09 44.1 °F 36.7 °F 29.89 in SSW 3.2 mph 4.0 mph 75 % 0.00 in
02:14 44.0 °F 36.9 °F 29.89 in SSW 1.9 mph 3.5 mph 76 % 0.00 in
02:19 44.0 °F 36.9 °F 29.89 in SSW 2.4 mph 3.5 mph 76 % 0.00 in
02:24 43.9 °F 36.8 °F 29.89 in WSW 2.2 mph 6.0 mph 76 % 0.00 in
02:29 43.8 °F 36.7 °F 29.89 in SSW 1.1 mph 4.6 mph 76 % 0.00 in
02:35 43.8 °F 36.7 °F 29.89 in SW 2.1 mph 4.6 mph 76 % 0.00 in
02:40 43.8 °F 36.7 °F 29.90 in SW 0.9 mph 3.5 mph 76 % 0.00 in
02:45 43.7 °F 37.0 °F 29.89 in SW 2.2 mph 4.0 mph 77 % 0.00 in
02:50 43.6 °F 36.9 °F 29.89 in SW 1.2 mph 3.5 mph 77 % 0.00 in
02:55 43.6 °F 37.2 °F 29.90 in SW 2.8 mph 5.0 mph 78 % 0.00 in
03:00 43.5 °F 37.1 °F 29.89 in SW 2.5 mph 3.5 mph 78 % 0.00 in
03:05 43.4 °F 37.0 °F 29.89 in SW 2.4 mph 3.5 mph 78 % 0.00 in
03:10 43.4 °F 37.0 °F 29.89 in SW 2.5 mph 4.6 mph 78 % 0.00 in
03:15 43.4 °F 37.0 °F 29.89 in WSW 2.0 mph 3.5 mph 78 % 0.00 in
03:26 43.4 °F 37.3 °F 29.89 in SW 1.4 mph 3.5 mph 79 % 0.00 in
03:31 43.3 °F 37.2 °F 29.89 in SSW 4.3 mph 5.8 mph 79 % 0.00 in
03:36 43.3 °F 37.2 °F 29.89 in West 2.5 mph 4.6 mph 79 % 0.00 in
03:41 43.3 °F 37.2 °F 29.89 in SW 3.4 mph 5.8 mph 79 % 0.00 in
03:46 43.3 °F 37.2 °F 29.89 in SW 3.0 mph 5.8 mph 79 % 0.00 in
03:51 43.3 °F 37.2 °F 29.89 in SW 2.3 mph 6.9 mph 79 % 0.00 in
03:56 43.3 °F 37.2 °F 29.89 in SW 3.3 mph 7.0 mph 79 % 0.00 in
04:01 43.3 °F 37.2 °F 29.89 in WSW 3.6 mph 9.2 mph 79 % 0.00 in
04:06 43.4 °F 37.3 °F 29.90 in SW 1.4 mph 5.8 mph 79 % 0.00 in
04:11 43.4 °F 37.3 °F 29.90 in WSW 2.5 mph 3.5 mph 79 % 0.00 in
04:17 43.5 °F 37.1 °F 29.89 in SW 4.2 mph 5.8 mph 78 % 0.00 in
04:22 43.5 °F 37.1 °F 29.90 in WNW 1.9 mph 3.5 mph 78 % 0.00 in
04:27 43.6 °F 37.2 °F 29.90 in WSW 2.8 mph 4.6 mph 78 % 0.00 in
04:32 43.6 °F 37.2 °F 29.90 in West 1.8 mph 3.5 mph 78 % 0.00 in
04:37 43.6 °F 36.9 °F 29.91 in West 6.5 mph 11.5 mph 77 % 0.00 in
04:42 43.6 °F 37.2 °F 29.91 in WSW 3.0 mph 6.9 mph 78 % 0.00 in
04:47 43.7 °F 37.3 °F 29.91 in WNW 1.2 mph 3.5 mph 78 % 0.00 in
04:52 43.7 °F 37.3 °F 29.91 in West 1.9 mph 3.5 mph 78 % 0.00 in
04:57 43.6 °F 37.5 °F 29.91 in WSW 2.0 mph 6.9 mph 79 % 0.00 in
05:02 43.4 °F 37.3 °F 29.91 in West 0.9 mph 5.8 mph 79 % 0.00 in
05:08 43.3 °F 37.2 °F 29.92 in SW 2.1 mph 3.5 mph 79 % 0.00 in
05:13 43.2 °F 37.1 °F 29.91 in West 0.2 mph 3.5 mph 79 % 0.00 in
05:18 43.1 °F 37.0 °F 29.90 in WSW 3.7 mph 7.0 mph 79 % 0.00 in
05:23 42.9 °F 36.8 °F 29.91 in NW 0.7 mph 2.0 mph 79 % 0.00 in
05:28 42.8 °F 36.7 °F 29.91 in West 2.8 mph 6.9 mph 79 % 0.00 in
05:33 42.7 °F 36.6 °F 29.91 in WNW 3.7 mph 6.0 mph 79 % 0.00 in
05:38 42.7 °F 36.3 °F 29.92 in WNW 1.7 mph 3.5 mph 78 % 0.00 in
05:43 42.7 °F 36.3 °F 29.92 in WNW 2.2 mph 4.0 mph 78 % 0.00 in
05:48 42.6 °F 36.2 °F 29.92 in WNW 2.9 mph 4.6 mph 78 % 0.00 in
05:53 42.6 °F 35.9 °F 29.92 in SSW 3.9 mph 9.2 mph 77 % 0.00 in
05:59 42.5 °F 35.8 °F 29.92 in WNW 3.3 mph 5.8 mph 77 % 0.00 in
06:09 42.5 °F 35.1 °F 29.93 in NW 2.6 mph 4.6 mph 75 % 0.00 in
06:14 42.4 °F 35.0 °F 29.93 in West 4.5 mph 8.1 mph 75 % 0.00 in
06:19 42.5 °F 34.8 °F 29.93 in WNW 1.4 mph 3.5 mph 74 % 0.00 in
06:24 42.5 °F 34.8 °F 29.94 in West 3.1 mph 8.1 mph 74 % 0.00 in
06:29 42.5 °F 34.5 °F 29.93 in WNW 3.3 mph 5.0 mph 73 % 0.00 in
06:34 42.5 °F 34.1 °F 29.94 in WNW 3.6 mph 8.1 mph 72 % 0.00 in
06:39 42.5 °F 34.1 °F 29.94 in WNW 2.3 mph 8.1 mph 72 % 0.00 in
06:44 42.5 °F 34.1 °F 29.94 in WNW 3.3 mph 6.9 mph 72 % 0.00 in
06:50 42.5 °F 34.1 °F 29.95 in West 3.0 mph 8.1 mph 72 % 0.00 in
06:55 42.5 °F 33.8 °F 29.94 in WSW 3.0 mph 5.8 mph 71 % 0.00 in
07:00 42.5 °F 33.8 °F 29.95 in NW 2.3 mph 9.2 mph 71 % 0.00 in
07:05 42.4 °F 33.7 °F 29.95 in West 2.2 mph 4.6 mph 71 % 0.00 in
07:10 42.4 °F 33.7 °F 29.95 in WNW 2.2 mph 4.0 mph 71 % 0.00 in
07:15 42.3 °F 33.9 °F 29.95 in NW 3.4 mph 5.0 mph 72 % 0.00 in
07:20 42.2 °F 33.8 °F 29.96 in NW 3.2 mph 4.6 mph 72 % 0.00 in
07:25 42.2 °F 33.5 °F 29.96 in WNW 3.4 mph 8.1 mph 71 % 0.00 in
07:30 42.1 °F 33.7 °F 29.95 in NW 2.5 mph 5.0 mph 72 % 0.00 in
07:35 42.1 °F 33.4 °F 29.96 in WSW 4.1 mph 8.1 mph 71 % 0.00 in
07:41 42.1 °F 33.7 °F 29.97 in WNW 4.3 mph 8.1 mph 72 % 0.00 in
07:46 42.1 °F 33.7 °F 29.97 in WSW 2.5 mph 6.9 mph 72 % 0.00 in
07:51 42.0 °F 33.6 °F 29.97 in West 3.9 mph 9.2 mph 72 % 0.00 in
07:56 42.0 °F 33.6 °F 29.98 in West 4.7 mph 10.4 mph 72 % 0.00 in
08:01 42.0 °F 33.6 °F 29.99 in West 3.1 mph 5.8 mph 72 % 0.00 in
08:11 42.0 °F 33.6 °F 29.99 in WSW 2.3 mph 5.8 mph 72 % 0.00 in
08:16 42.0 °F 33.3 °F 29.99 in WNW 3.6 mph 8.1 mph 71 % 0.00 in
08:26 42.1 °F 33.4 °F 30.00 in West 3.6 mph 5.8 mph 71 % 0.00 in
08:32 42.1 °F 33.4 °F 30.00 in West 5.7 mph 8.1 mph 71 % 0.00 in
08:37 42.2 °F 33.1 °F 30.00 in NNW 5.7 mph 10.4 mph 70 % 0.00 in
08:42 42.2 °F 33.1 °F 30.00 in West 3.4 mph 9.2 mph 70 % 0.00 in
08:47 42.2 °F 33.5 °F 30.00 in West 4.2 mph 6.9 mph 71 % 0.00 in
08:52 42.2 °F 33.5 °F 30.00 in WNW 4.3 mph 9.2 mph 71 % 0.00 in
08:57 42.2 °F 33.5 °F 30.00 in NW 5.4 mph 7.0 mph 71 % 0.00 in
09:02 42.1 °F 33.0 °F 30.00 in NW 5.4 mph 8.1 mph 70 % 0.00 in
09:07 42.1 °F 33.4 °F 30.01 in WNW 4.7 mph 9.2 mph 71 % 0.00 in
09:12 42.1 °F 32.7 °F 30.00 in WNW 7.1 mph 14.0 mph 69 % 0.00 in
09:17 42.0 °F 31.5 °F 30.00 in NNW 7.8 mph 15.0 mph 66 % 0.00 in
09:23 42.0 °F 31.5 °F 30.00 in NW 3.6 mph 8.1 mph 66 % 0.00 in
09:28 42.0 °F 30.7 °F 30.00 in NW 6.7 mph 11.5 mph 64 % 0.00 in
09:33 41.9 °F 30.6 °F 30.01 in NNW 4.0 mph 13.8 mph 64 % 0.00 in
09:38 41.8 °F 30.5 °F 30.01 in WNW 8.9 mph 19.6 mph 64 % 0.00 in
09:43 41.7 °F 30.4 °F 30.01 in West 7.9 mph 14.0 mph 64 % 0.00 in
09:48 41.7 °F 30.4 °F 30.01 in NW 9.4 mph 12.7 mph 64 % 0.00 in
09:53 41.6 °F 30.3 °F 30.01 in WNW 5.7 mph 11.5 mph 64 % 0.00 in
09:58 41.6 °F 30.7 °F 30.01 in NW 6.2 mph 11.5 mph 65 % 0.00 in
09:59 41.5 °F 30.6 °F 30.00 in WNW 6.2 mph 11.5 mph 65 % 0.00 in
10:05 41.5 °F 30.6 °F 30.01 in NW 6.7 mph 9.2 mph 65 % 0.00 in
10:10 41.4 °F 30.5 °F 30.01 in NW 5.6 mph 14.0 mph 65 % 0.00 in
10:15 41.4 °F 30.1 °F 30.02 in WSW 6.7 mph 9.2 mph 64 % 0.00 in
10:20 41.4 °F 30.1 °F 30.02 in WNW 6.3 mph 11.5 mph 64 % 0.00 in
10:25 41.3 °F 29.6 °F 30.02 in WNW 6.2 mph 9.2 mph 63 % 0.00 in
10:30 41.3 °F 29.6 °F 30.02 in WSW 4.1 mph 5.8 mph 63 % 0.00 in
10:35 41.2 °F 29.5 °F 30.02 in West 7.3 mph 15.0 mph 63 % 0.00 in
10:40 41.1 °F 29.5 °F 30.02 in WNW 3.0 mph 6.9 mph 63 % 0.00 in
10:45 41.1 °F 29.5 °F 30.02 in WNW 3.4 mph 10.0 mph 63 % 0.00 in
10:56 41.1 °F 28.7 °F 30.02 in WSW 2.7 mph 7.0 mph 61 % 0.00 in
11:01 41.1 °F 28.7 °F 30.02 in West 5.4 mph 11.5 mph 61 % 0.00 in
11:06 41.3 °F 28.4 °F 30.02 in West 2.9 mph 7.0 mph 60 % 0.00 in
11:11 41.5 °F 28.6 °F 30.03 in West 4.8 mph 9.2 mph 60 % 0.00 in
11:16 41.8 °F 28.5 °F 30.02 in WNW 3.9 mph 10.4 mph 59 % 0.00 in
11:21 41.9 °F 28.2 °F 30.02 in West 1.6 mph 3.5 mph 58 % 0.00 in
11:26 42.2 °F 28.0 °F 30.02 in SW 2.3 mph 9.2 mph 57 % 0.00 in
11:31 42.4 °F 27.8 °F 30.02 in West 5.4 mph 9.2 mph 56 % 0.00 in
11:41 42.5 °F 27.9 °F 30.02 in WNW 5.4 mph 15.0 mph 56 % 0.00 in
11:52 42.5 °F 27.9 °F 30.02 in West 1.4 mph 5.0 mph 56 % 0.00 in
11:57 42.5 °F 28.8 °F 30.02 in WNW 2.9 mph 4.6 mph 58 % 0.00 in
12:02 42.6 °F 28.4 °F 30.01 in WSW 6.3 mph 9.0 mph 57 % 0.00 in
12:07 42.6 °F 28.8 °F 30.01 in SW 2.4 mph 5.8 mph 58 % 0.00 in
12:12 42.8 °F 28.6 °F 30.01 in WSW 3.8 mph 8.0 mph 57 % 0.00 in
12:17 43.0 °F 28.8 °F 30.00 in WSW 5.7 mph 8.1 mph 57 % 0.00 in
12:22 43.5 °F 28.8 °F 30.00 in WNW 6.1 mph 11.0 mph 56 % 0.00 in
12:27 44.1 °F 28.0 °F 30.00 in SW 5.5 mph 11.5 mph 53 % 0.00 in
12:32 44.5 °F 27.5 °F 29.99 in WSW 6.0 mph 8.1 mph 51 % 0.00 in
12:38 44.7 °F 27.7 °F 29.99 in WSW 8.3 mph 8.3 mph 51 % 0.00 in
12:43 44.7 °F 28.1 °F 29.99 in WNW 3.9 mph 5.8 mph 52 % 0.00 in
12:53 44.7 °F 27.7 °F 29.99 in West 5.9 mph 9.2 mph 51 % 0.00 in
12:58 44.8 °F 27.8 °F 29.99 in West 5.4 mph 10.0 mph 51 % 0.00 in
13:08 45.2 °F 27.6 °F 29.99 in NW 5.2 mph 8.1 mph 50 % 0.00 in
13:18 45.5 °F 27.9 °F 29.99 in WSW 2.9 mph 8.1 mph 50 % 0.00 in
13:23 45.7 °F 27.1 °F 29.99 in West 7.5 mph 9.2 mph 48 % 0.00 in
13:29 45.7 °F 27.6 °F 29.98 in WNW 6.6 mph 11.5 mph 49 % 0.00 in
13:34 45.7 °F 27.6 °F 29.98 in West 6.4 mph 10.4 mph 49 % 0.00 in
13:39 46.0 °F 27.4 °F 29.98 in WSW 7.7 mph 12.7 mph 48 % 0.00 in
13:44 46.2 °F 27.1 °F 29.98 in North 3.2 mph 6.9 mph 47 % 0.00 in
13:49 46.3 °F 27.2 °F 29.98 in NW 4.8 mph 8.1 mph 47 % 0.00 in
13:54 46.4 °F 27.2 °F 29.98 in WNW 5.0 mph 12.7 mph 47 % 0.00 in
13:59 46.4 °F 26.7 °F 29.98 in WNW 6.7 mph 13.8 mph 46 % 0.00 in
14:04 46.5 °F 26.8 °F 29.98 in WNW 3.2 mph 9.2 mph 46 % 0.00 in
14:09 46.6 °F 26.4 °F 29.99 in NW 3.8 mph 4.6 mph 45 % 0.00 in
14:14 46.7 °F 26.5 °F 29.99 in WNW 7.1 mph 11.5 mph 45 % 0.00 in
14:20 46.5 °F 27.3 °F 29.98 in SW 2.1 mph 9.2 mph 47 % 0.00 in
14:25 46.3 °F 27.7 °F 29.99 in WNW 1.8 mph 5.8 mph 48 % 0.00 in
14:30 46.2 °F 27.6 °F 29.99 in WNW 4.6 mph 9.0 mph 48 % 0.00 in
14:35 46.0 °F 27.9 °F 30.00 in WNW 4.8 mph 10.4 mph 49 % 0.00 in
14:40 45.6 °F 27.5 °F 30.00 in WSW 3.5 mph 7.0 mph 49 % 0.00 in
14:45 45.3 °F 26.7 °F 30.00 in WNW 4.4 mph 12.7 mph 48 % 0.00 in
14:50 45.1 °F 27.6 °F 29.99 in West 6.7 mph 11.5 mph 50 % 0.00 in
14:55 44.8 °F 26.3 °F 29.99 in WNW 5.5 mph 11.5 mph 48 % 0.00 in
15:00 44.7 °F 26.7 °F 30.00 in WSW 3.0 mph 3.5 mph 49 % 0.00 in
15:06 44.7 °F 27.2 °F 30.00 in SSW 2.5 mph 6.9 mph 50 % 0.00 in
15:11 44.6 °F 27.6 °F 30.00 in NW 5.1 mph 7.0 mph 51 % 0.00 in
15:16 44.5 °F 27.5 °F 30.00 in SW 5.6 mph 8.1 mph 51 % 0.00 in
15:21 44.4 °F 27.9 °F 30.01 in West 3.8 mph 5.8 mph 52 % 0.00 in
15:26 44.2 °F 28.6 °F 30.01 in NW 5.2 mph 8.0 mph 54 % 0.00 in
15:31 43.9 °F 27.9 °F 30.01 in NW 7.8 mph 11.5 mph 53 % 0.00 in
15:36 43.7 °F 28.1 °F 30.01 in West 6.1 mph 12.0 mph 54 % 0.00 in
15:41 43.5 °F 27.5 °F 30.01 in WNW 6.7 mph 11.5 mph 53 % 0.00 in
15:46 43.4 °F 26.0 °F 30.02 in WNW 7.2 mph 16.1 mph 50 % 0.00 in
15:51 43.4 °F 25.5 °F 30.02 in WNW 8.6 mph 10.0 mph 49 % 0.00 in
15:57 43.4 °F 26.0 °F 30.03 in WNW 6.2 mph 13.0 mph 50 % 0.00 in
16:02 43.4 °F 25.5 °F 30.03 in West 2.6 mph 6.0 mph 49 % 0.00 in
16:07 43.4 °F 26.0 °F 30.03 in WSW 3.9 mph 12.7 mph 50 % 0.00 in
16:12 43.3 °F 25.9 °F 30.03 in SW 2.8 mph 6.9 mph 50 % 0.00 in
16:17 43.2 °F 25.8 °F 30.03 in WNW 6.4 mph 10.4 mph 50 % 0.00 in
16:22 43.1 °F 26.7 °F 30.03 in West 5.4 mph 11.5 mph 52 % 0.00 in
16:27 43.0 °F 27.0 °F 30.03 in West 5.3 mph 10.4 mph 53 % 0.00 in
16:32 42.8 °F 26.4 °F 30.04 in WSW 4.2 mph 11.5 mph 52 % 0.00 in
16:37 42.7 °F 27.2 °F 30.04 in WNW 4.6 mph 9.2 mph 54 % 0.00 in
16:42 42.5 °F 27.9 °F 30.04 in West 3.9 mph 5.8 mph 56 % 0.00 in
16:47 42.4 °F 28.2 °F 30.04 in WNW 4.9 mph 5.8 mph 57 % 0.00 in
16:52 42.2 °F 27.6 °F 30.04 in WNW 3.9 mph 8.0 mph 56 % 0.00 in
16:58 41.9 °F 28.2 °F 30.04 in WNW 3.5 mph 7.0 mph 58 % 0.00 in
17:03 41.8 °F 28.1 °F 30.03 in WNW 5.4 mph 13.8 mph 58 % 0.00 in
17:08 41.7 °F 28.4 °F 30.04 in West 3.7 mph 7.0 mph 59 % 0.00 in
17:13 41.5 °F 28.2 °F 30.04 in WSW 3.1 mph 6.9 mph 59 % 0.00 in
17:18 41.4 °F 27.7 °F 30.04 in NW 2.0 mph 4.6 mph 58 % 0.00 in
17:23 41.3 °F 27.2 °F 30.04 in WNW 4.7 mph 9.0 mph 57 % 0.00 in
17:28 41.1 °F 27.9 °F 30.05 in West 1.7 mph 4.0 mph 59 % 0.00 in
17:33 40.9 °F 27.7 °F 30.05 in WSW 3.7 mph 8.1 mph 59 % 0.00 in
17:43 40.7 °F 26.6 °F 30.05 in WNW 4.2 mph 10.4 mph 57 % 0.00 in
17:49 40.6 °F 26.1 °F 30.05 in NW 3.8 mph 8.1 mph 56 % 0.00 in
17:54 40.5 °F 25.6 °F 30.06 in West 1.8 mph 6.9 mph 55 % 0.00 in
17:59 40.4 °F 25.5 °F 30.07 in WNW 2.6 mph 6.0 mph 55 % 0.00 in
18:04 40.2 °F 25.7 °F 30.07 in SW 1.8 mph 10.4 mph 56 % 0.00 in
18:09 40.2 °F 25.3 °F 30.08 in West 2.4 mph 9.2 mph 55 % 0.00 in
18:14 40.1 °F 25.6 °F 30.07 in West 2.9 mph 8.1 mph 56 % 0.00 in
18:19 40.0 °F 26.0 °F 30.07 in WSW 5.0 mph 6.9 mph 57 % 0.00 in
18:29 39.8 °F 25.4 °F 30.08 in West 3.7 mph 8.1 mph 56 % 0.00 in
18:34 39.7 °F 25.3 °F 30.07 in West 3.1 mph 5.8 mph 56 % 0.00 in
18:40 39.6 °F 25.6 °F 30.08 in West 2.1 mph 4.6 mph 57 % 0.00 in
18:45 39.5 °F 25.1 °F 30.08 in West 3.4 mph 6.9 mph 56 % 0.00 in
18:50 39.3 °F 25.3 °F 30.08 in WNW 2.1 mph 5.8 mph 57 % 0.00 in
18:55 39.2 °F 25.2 °F 30.07 in West 2.5 mph 8.1 mph 57 % 0.00 in
19:00 39.1 °F 25.1 °F 30.07 in WNW 3.6 mph 8.1 mph 57 % 0.00 in
19:05 39.1 °F 25.6 °F 30.08 in NW 4.6 mph 11.5 mph 58 % 0.00 in
19:10 39.1 °F 26.0 °F 30.08 in WNW 1.9 mph 3.5 mph 59 % 0.00 in
19:15 39.0 °F 25.9 °F 30.07 in West 2.6 mph 8.1 mph 59 % 0.00 in
19:20 38.9 °F 26.6 °F 30.06 in WSW 2.2 mph 6.0 mph 61 % 0.00 in
19:25 38.8 °F 27.3 °F 30.07 in West 2.6 mph 4.6 mph 63 % 0.00 in
19:31 38.8 °F 27.7 °F 30.07 in WNW 2.6 mph 6.0 mph 64 % 0.00 in
19:36 38.7 °F 27.6 °F 30.07 in NW 1.6 mph 10.0 mph 64 % 0.00 in
19:41 38.6 °F 26.3 °F 30.07 in WSW 2.8 mph 4.6 mph 61 % 0.00 in
19:46 38.4 °F 26.1 °F 30.08 in WSW 1.8 mph 4.0 mph 61 % 0.00 in
19:51 38.3 °F 26.0 °F 30.08 in West 2.6 mph 5.0 mph 61 % 0.00 in
19:56 38.2 °F 25.5 °F 30.08 in WSW 0.2 mph 1.2 mph 60 % 0.00 in
20:01 38.0 °F 25.3 °F 30.08 in WNW 2.5 mph 7.0 mph 60 % 0.00 in
20:11 37.8 °F 25.1 °F 30.09 in NNW 0.6 mph 1.0 mph 60 % 0.00 in
20:16 37.7 °F 25.1 °F 30.08 in WNW 1.5 mph 4.0 mph 60 % 0.00 in
20:22 37.5 °F 25.3 °F 30.08 in WNW 1.1 mph 6.9 mph 61 % 0.00 in
20:27 37.5 °F 25.3 °F 30.08 in Calm   4.6 mph 61 % 0.00 in
20:32 37.4 °F 26.3 °F 30.08 in NW 0.2 mph 2.3 mph 64 % 0.00 in
20:37 37.3 °F 27.3 °F 30.07 in WNW 2.9 mph 6.0 mph 67 % 0.00 in
20:42 37.2 °F 27.2 °F 30.08 in NNW 1.3 mph 3.5 mph 67 % 0.00 in
20:47 37.1 °F 26.8 °F 30.08 in WNW 1.9 mph 3.5 mph 66 % 0.00 in
20:52 37.0 °F 26.3 °F 30.08 in NW 0.9 mph 3.5 mph 65 % 0.00 in
20:57 36.9 °F 26.2 °F 30.08 in NNW 1.5 mph 3.5 mph 65 % 0.00 in
21:02 36.9 °F 25.9 °F 30.08 in NNW 1.0 mph 3.5 mph 64 % 0.00 in
21:07 36.8 °F 25.8 °F 30.08 in WNW 1.7 mph 5.0 mph 64 % 0.00 in
21:13 36.7 °F 25.7 °F 30.08 in NNW 1.1 mph 2.3 mph 64 % 0.00 in
21:18 36.7 °F 26.0 °F 30.07 in North 2.6 mph 3.5 mph 65 % 0.00 in
21:23 36.6 °F 26.7 °F 30.07 in NNW 1.1 mph 6.9 mph 67 % 0.00 in
21:28 36.6 °F 26.3 °F 30.08 in NNE 0.5 mph 7.0 mph 66 % 0.00 in
21:33 36.4 °F 26.1 °F 30.09 in NW 0.9 mph 3.5 mph 66 % 0.00 in
21:38 36.4 °F 26.1 °F 30.09 in NE 1.0 mph 4.6 mph 66 % 0.00 in
21:43 36.3 °F 26.0 °F 30.08 in North 2.7 mph 5.8 mph 66 % 0.00 in
21:48 36.2 °F 25.6 °F 30.08 in NNW 2.7 mph 4.6 mph 65 % 0.00 in
21:53 36.2 °F 25.6 °F 30.08 in NNW 1.4 mph 3.5 mph 65 % 0.00 in
21:58 36.2 °F 25.9 °F 30.09 in West 0.2 mph 5.8 mph 66 % 0.00 in
22:03 36.2 °F 26.3 °F 30.08 in North 4.6 mph 8.0 mph 67 % 0.00 in
22:09 36.2 °F 25.9 °F 30.09 in NNW 5.2 mph 8.1 mph 66 % 0.00 in
22:14 36.4 °F 25.7 °F 30.09 in North 4.0 mph 8.1 mph 65 % 0.00 in
22:19 36.5 °F 25.8 °F 30.08 in NNW 3.5 mph 6.9 mph 65 % 0.00 in
22:24 36.5 °F 25.8 °F 30.08 in NNW 1.1 mph 3.5 mph 65 % 0.00 in
22:29 36.5 °F 25.8 °F 30.09 in NNE 4.6 mph 9.0 mph 65 % 0.00 in
22:34 36.4 °F 25.0 °F 30.10 in NE 2.0 mph 4.6 mph 63 % 0.00 in
22:39 36.4 °F 25.0 °F 30.09 in NNW 2.0 mph 5.8 mph 63 % 0.00 in
22:44 36.4 °F 25.0 °F 30.10 in North 1.1 mph 4.6 mph 63 % 0.00 in
22:49 36.2 °F 24.8 °F 30.10 in NW 1.3 mph 2.3 mph 63 % 0.00 in
22:54 36.1 °F 24.7 °F 30.10 in North 1.4 mph 4.6 mph 63 % 0.00 in
23:00 36.0 °F 25.0 °F 30.10 in NNW 1.7 mph 3.5 mph 64 % 0.00 in
23:05 35.9 °F 24.9 °F 30.11 in NNW 1.7 mph 2.3 mph 64 % 0.00 in
23:15 35.7 °F 25.1 °F 30.11 in NW 2.7 mph 4.6 mph 65 % 0.00 in
23:20 35.6 °F 24.6 °F 30.11 in WNW 0.8 mph 3.5 mph 64 % 0.00 in
23:25 35.5 °F 24.1 °F 30.11 in NNW 1.9 mph 4.0 mph 63 % 0.00 in
23:30 35.4 °F 24.0 °F 30.11 in NNW 2.1 mph 4.6 mph 63 % 0.00 in
23:35 35.2 °F 23.9 °F 30.11 in WNW 0.7 mph 2.0 mph 63 % 0.00 in
23:40 35.2 °F 23.5 °F 30.11 in NNW 1.9 mph 4.6 mph 62 % 0.00 in
23:45 35.0 °F 23.3 °F 30.11 in North 1.8 mph 3.5 mph 62 % 0.00 in
23:51 35.0 °F 23.3 °F 30.11 in NNW 0.3 mph 2.0 mph 62 % 0.00 in
23:56 34.9 °F 23.6 °F 30.11 in NNW 0.2 mph 2.3 mph 63 % 0.00 in
Crab Meadow Weather
Compliments of Weather Underground - 2.75 mb

Script developed by  Jim McMurry - jmcmurry@mwt.net Adapted for the template by  Wim van der Kuil - Leuven-Template.eu

Weather Terms: Outlook - A hazardous weather outlook is issued daily to indicate that a hazardous weather or hydrologic event may occur in the next several days. The outlook will include information about potential severe thunderstorms , heavy rain or flooding, winter weather, extremes of heat or cold, etc., that may develop over the next 7 days with an emphasis on the first 24 hours of the forecast. It is intended to provide information to those who need considerable lead time to prepare for the event.